This demonstration page uses our WeatherBlox Daily Observations layout. Learn more.

Left ArrowRight Arrow

Hourly Observations for April 2, 2022

Temp ( °F °C ) Dew Point ( °F °C ) Humidity (%) Winds ( mph kmh ) Pressure ( in mb ) Visibility ( mi km ) Precip ( " mm )
12:56 am 00:56 Clear 37 2.8 29 -1.7 73 73 NW 9 15 30.01 1016 10 16 0.00 0.00
1:56 am 01:56 Clear 33 0.6 27 -2.8 78 78 WNW 10 17 30.04 1017 10 16 0.00 0.00
2:56 am 02:56 Clear 32 0 27 -2.8 82 82 NW 9 15 30.04 1017 10 16 0.00 0.00
3:56 am 03:56 Mostly Cloudy 33 0.6 29 -1.7 85 85 WNW 9 15 30.06 1018 10 16 0.00 0.00
4:56 am 04:56 Cloudy 34 1.1 30 -1.1 85 85 WNW 7 11 30.07 1018 10 16 0.00 0.00
5:56 am 05:56 Cloudy 32 0 29 -1.7 88 88 NW 8 13 30.08 1019 10 16 0.00 0.00
6:56 am 06:56 Cloudy 35 1.7 31 -0.6 85 85 NW 9 15 30.09 1019 10 16 0.00 0.00
7:56 am 07:56 Cloudy 36 2.2 31 -0.6 82 82 NW 7 11 30.12 1020 10 16 0.00 0.00
8:56 am 08:56 Mostly Cloudy 43 6.1 34 1.1 71 71 NW 12 19 30.13 1020 10 16 0.00 0.00
9:56 am 09:56 Mostly Sunny 48 8.9 32 0 54 54 N 14 22 30.14 1021 10 16 0.00 0.00
10:56 am 10:56 Mostly Sunny 51 10.6 28 -2.2 41 41 N 14 22 30.14 1021 10 16 0.00 0.00
11:56 am 11:56 Sunny 54 12.2 24 -4.4 31 31 NNW 9 15 30.13 1020 10 16 0.00 0.00
12:56 pm 12:56 Sunny 56 13.3 25 -3.9 30 30 NNW 8 13 30.11 1020 10 16 0.00 0.00
1:56 pm 13:56 Sunny 59 15 24 -4.4 26 26 N 12 19 30.09 1019 10 16 0.00 0.00
2:56 pm 14:56 Sunny 60 15.6 24 -4.4 25 25 W 9 15 30.06 1018 10 16 0.00 0.00
3:56 pm 15:56 Sunny 60 15.6 24 -4.4 25 25 VRB 3 6 30.03 1017 10 16 0.00 0.00
4:56 pm 16:56 Sunny 62 16.7 25 -3.9 24 24 VRB 7 11 30.01 1016 10 16 0.00 0.00
5:56 pm 17:56 Sunny 64 17.8 27 -2.8 25 25 VRB 5 7 29.98 1015 10 16 0.00 0.00
6:56 pm 18:56 Sunny 62 16.7 27 -2.8 26 26 SSW 12 19 29.98 1015 10 16 0.00 0.00
7:56 pm 19:56 Sunny 56 13.3 27 -2.8 33 33 S 10 17 29.98 1015 10 16 0.00 0.00
8:56 pm 20:56 Clear 48 8.9 26 -3.3 42 42 S 8 13 29.98 1015 10 16 0.00 0.00
9:56 pm 21:56 Clear 48 8.9 27 -2.8 44 44 SSE 10 17 29.98 1015 10 16 0.00 0.00
10:56 pm 22:56 Clear 47 8.3 27 -2.8 46 46 SSE 10 17 29.97 1015 10 16 0.00 0.00
11:56 pm 23:56 Clear 47 8.3 27 -2.8 46 46 SSE 12 19 29.96 1014 10 16 0.00 0.00

Powered by AerisWeather